Location: Avenches
(46.8809°N, 7.0410°E)
Time: 15:31:46
(UTC+00:00)

Cosmos 2369 Rocket - Pass Details

Date: 30 March 2020
Orbit: 829 x 852 km, 71.0° (Epoch: 02 June)

Event Time Altitude Azimuth Distance (km) Brightness Sun altitude
Rises 21:15:27 0° 322° (NW) 3,424 6.5 -30.2°
Reaches altitude 10° 21:18:21 10° 309° (NW) 2,481 5.5 -30.6°
Maximum altitude 21:22:44 24° 259° (WSW) 1,705 4.0 -31.1°
Enters shadow 21:23:49 22° 242° (WSW) 1,759 3.9 -31.2°
